TimeEST,TemperatureF,Dew PointF,Humidity,Sea Level PressureIn,VisibilityMPH,Wind Direction,Wind SpeedMPH,Gust SpeedMPH,PrecipitationIn,Events,Conditions,WindDirDegrees,DateUTC
12:53 AM,46.0,42.1,86,30.17,10.0,Calm,Calm,-,N/A,,Clear,0,2013-03-05 05:53:00
2:53 AM,46.0,42.1,86,30.14,10.0,Calm,Calm,-,N/A,,Clear,0,2013-03-05 07:53:00
3:53 AM,45.0,42.1,90,30.15,10.0,SW,3.5,-,N/A,,Clear,220,2013-03-05 08:53:00
4:53 AM,46.0,43.0,89,30.14,10.0,Calm,Calm,-,N/A,,Clear,0,2013-03-05 09:53:00
5:53 AM,46.9,44.1,90,30.16,10.0,South,5.8,-,N/A,,Clear,190,2013-03-05 10:53:00
6:53 AM,46.0,43.0,89,30.17,10.0,SW,5.8,-,N/A,,Clear,220,2013-03-05 11:53:00
8:53 AM,59.0,46.0,62,30.21,10.0,West,4.6,-,N/A,,Clear,270,2013-03-05 13:53:00
9:53 AM,64.9,39.9,40,30.19,10.0,SSW,6.9,-,N/A,,Clear,200,2013-03-05 14:53:00
10:53 AM,70.0,46.9,44,30.18,10.0,South,8.1,-,N/A,,Clear,180,2013-03-05 15:53:00
11:53 AM,72.0,46.0,40,30.16,10.0,SSW,10.4,17.3,N/A,,Clear,200,2013-03-05 16:53:00
12:53 PM,73.9,48.0,40,30.13,10.0,SW,10.4,-,N/A,,Clear,230,2013-03-05 17:53:00
1:53 PM,72.0,52.0,49,30.10,10.0,East,13.8,-,N/A,,Clear,100,2013-03-05 18:53:00
2:53 PM,72.0,55.0,55,30.08,10.0,ESE,13.8,19.6,N/A,,Clear,110,2013-03-05 19:53:00
3:53 PM,71.1,55.9,59,30.07,10.0,SE,12.7,24.2,N/A,,Clear,130,2013-03-05 20:53:00
4:53 PM,70.0,57.0,63,30.06,10.0,SE,11.5,-,N/A,,Clear,130,2013-03-05 21:53:00
5:53 PM,70.0,57.0,63,30.07,10.0,East,5.8,-,N/A,,Clear,100,2013-03-05 22:53:00
6:53 PM,64.9,55.0,70,30.06,10.0,SSE,4.6,-,N/A,,Clear,160,2013-03-05 23:53:00
7:53 PM,64.0,55.0,73,30.05,10.0,SW,4.6,-,N/A,,Clear,230,2013-03-06 00:53:00
8:53 PM,64.9,46.0,50,30.06,10.0,WSW,9.2,-,N/A,,Clear,240,2013-03-06 01:53:00
9:53 PM,63.0,46.9,56,30.06,10.0,WSW,9.2,-,N/A,,Clear,240,2013-03-06 02:53:00
10:53 PM,61.0,50.0,67,30.06,10.0,WSW,11.5,-,N/A,,Clear,240,2013-03-06 03:53:00
11:53 PM,59.0,51.1,75,30.04,10.0,SW,9.2,-,N/A,,Clear,230,2013-03-06 04:53:00